Location: Newark
(13.8117°N, 3.6025°W)
Time: 23:15:14
(UTC+00:00)

Explorer 11/Cluster Stage 4 - Pass Details

Date: 01 September 2019
Orbit: 467 x 1259 km, 28.8° (Epoch: 17 October)

Event Time Altitude Azimuth Distance (km) Brightness Sun altitude
Rises 09:43:32 0° 303° (WNW) 3,674 9.7 52.6°
Reaches altitude 10° 09:46:31 10° 315° (NW) 2,850 9.3 53.3°
Maximum altitude 09:52:26 27° 11° (N) 2,052 9.1 54.7°
Drops below altitude 10° 09:59:01 10° 66° (ENE) 3,190 10.3 56.3°
Sets 10:02:34 0° 77° (ENE) 4,192 10.8 57.2°
